Total_Precipitation_Accumulation
0.25 0.23 0.20 0.20 0.17 0.23 0.37 0.25 0.11 0.04 0.03 0.16 0.10 0.02 0.00 0.00 0.00 0.00 0.00 0.00 0.00 0.00 0.00 0.00 0.00 0.00 0.00 0.00 0.00 0.00 0.00 0.00 0.00 0.01 0.00 0.00 0.00 0.00 0.01 0.01 0.02 0.01 0.03 0.01
0.35 0.33 0.30 0.26 0.19 0.23 0.26 0.35 0.25 0.42 0.07 0.07 0.02 0.00 0.00 0.00 0.00 0.00 0.00 0.00 0.00 0.00 0.00 0.00 0.00 0.00 0.00 0.00 0.00 0.00 0.00 0.00 0.00 0.00 0.00 0.01 0.00 0.00 0.00 0.00 0.00 0.01 0.03 0.00
0.44 0.39 0.43 0.28 0.21 0.24 0.35 0.35 0.37 0.63 0.25 0.01 0.00 0.00 0.00 0.00 0.00 0.00 0.00 0.00 0.00 0.00 0.00 0.00 0.00 0.00 0.00 0.00 0.00 0.00 0.00 0.00 0.00 0.00 0.00 0.00 0.00 0.00 0.00 0.00 0.00 0.00 0.00 0.00
0.50 0.45 0.50 0.32 0.24 0.32 0.70 0.62 0.20 0.16 0.12 0.02 0.01 0.00 0.00 0.00 0.00 0.00 0.00 0.00 0.00 0.00 0.00 0.00 0.00 0.00 0.00 0.00 0.00 0.00 0.00 0.00 0.00 0.00 0.00 0.00 0.00 0.00 0.00 0.00 0.00 0.00 0.00 0.00
0.53 0.47 0.57 0.39 0.31 0.52 1.00 0.68 0.16 0.04 0.02 0.00 0.01 0.01 0.00 0.00 0.00 0.00 0.00 0.00 0.00 0.00 0.00 0.00 0.00 0.00 0.00 0.00 0.00 0.00 0.00 0.00 0.00 0.00 0.00 0.00 0.00 0.00 0.00 0.00 0.00 0.00 0.00 0.00
0.55 0.45 0.55 0.48 0.51 0.89 1.00 0.41 0.07 0.03 0.04 0.02 0.01 0.00 0.00 0.00 0.00 0.00 0.00 0.00 0.00 0.00 0.00 0.00 0.00 0.00 0.00 0.00 0.00 0.00 0.00 0.00 0.01 0.01 0.00 0.01 0.01 0.00 0.00 0.00 0.00 0.00 0.00 0.00
0.56 0.45 0.47 0.54 0.57 0.73 0.47 0.15 0.11 0.21 0.10 0.04 0.00 0.00 0.00 0.00 0.00 0.00 0.00 0.00 0.00 0.00 0.00 0.01 0.00 0.00 0.00 0.01 0.02 0.01 0.00 0.00 0.01 0.01 0.02 0.07 0.00 0.00 0.00 0.00 0.00 0.00 0.00 0.00
0.52 0.41 0.39 0.47 0.40 0.46 0.39 0.18 0.21 0.34 0.18 0.03 0.01 0.00 0.00 0.00 0.00 0.00 0.00 0.00 0.00 0.00 0.01 0.04 0.06 0.03 0.04 0.04 0.04 0.02 0.00 0.00 0.01 0.02 0.03 0.02 0.00 0.00 0.00 0.00 0.00 0.00 0.00 0.02
0.49 0.35 0.30 0.28 0.24 0.35 0.36 0.30 0.30 0.56 0.42 0.05 0.01 0.02 0.00 0.00 0.02 0.03 0.06 0.03 0.03 0.01 0.02 0.04 0.05 0.04 0.01 0.00 0.00 0.00 0.00 0.01 0.02 0.03 0.05 0.04 0.00 0.00 0.00 0.00 0.01 0.01 0.04 0.09
0.44 0.27 0.19 0.17 0.15 0.30 0.41 0.39 0.44 0.78 0.62 0.15 0.02 0.02 0.01 0.00 0.02 0.07 0.04 0.13 0.11 0.12 0.14 0.15 0.04 0.01 0.01 0.01 0.01 0.01 0.01 0.01 0.01 0.01 0.04 0.01 0.00 0.00 0.01 0.14 0.17 0.06 0.12 0.17
0.35 0.20 0.15 0.14 0.11 0.23 0.39 0.43 0.55 0.79 0.75 0.20 0.19 0.04 0.01 0.01 0.03 0.08 0.05 0.07 0.10 0.17 0.22 0.15 0.04 0.02 0.01 0.02 0.01 0.01 0.03 0.09 0.10 0.07 0.16 0.06 0.00 0.03 0.15 0.18 0.08 0.08 0.07 0.06
0.30 0.20 0.18 0.15 0.10 0.19 0.39 0.44 0.60 0.61 0.97 0.38 0.29 0.10 0.01 0.00 0.00 0.06 0.10 0.05 0.04 0.10 0.10 0.07 0.05 0.02 0.02 0.00 0.02 0.00 0.01 0.01 0.02 0.04 0.03 0.00 0.00 0.03 0.02 0.04 0.10 0.07 0.07 0.09
0.30 0.25 0.21 0.16 0.10 0.19 0.36 0.40 0.68 0.87 0.85 0.44 0.29 0.17 0.04 0.00 0.00 0.05 0.17 0.06 0.05 0.09 0.14 0.25 0.15 0.16 0.06 0.05 0.04 0.02 0.05 0.03 0.03 0.03 0.01 0.00 0.01 0.01 0.02 0.06 0.08 0.13 0.20 0.24
0.33 0.21 0.19 0.17 0.10 0.18 0.36 0.43 0.72 1.15 1.26 0.79 0.47 0.31 0.16 0.08 0.04 0.01 0.11 0.11 0.13 0.24 0.32 0.36 0.25 0.27 0.13 0.07 0.03 0.05 0.08 0.07 0.04 0.05 0.01 0.02 0.04 0.07 0.14 0.21 0.31 0.29 0.19 0.14
0.30 0.19 0.20 0.21 0.14 0.28 0.55 0.56 0.61 1.13 1.53 0.89 0.42 0.34 0.18 0.18 0.15 0.06 0.16 0.33 0.31 0.35 0.33 0.25 0.11 0.04 0.06 0.08 0.09 0.13 0.06 0.03 0.06 0.10 0.06 0.23 0.22 0.33 0.42 0.38 0.27 0.15 0.09 0.04
0.25 0.20 0.25 0.28 0.35 0.71 1.52 1.40 0.65 0.94 1.24 1.54 0.80 0.40 0.27 0.31 0.34 0.26 0.11 0.18 0.50 0.66 0.37 0.16 0.04 0.03 0.12 0.27 0.14 0.02 0.00 0.02 0.11 0.16 0.13 0.22 0.32 0.34 0.22 0.20 0.13 0.04 0.01 0.00
0.24 0.23 0.36 0.52 0.78 1.32 1.84 1.21 0.63 0.60 1.10 1.87 1.25 0.58 0.28 0.32 0.31 0.24 0.16 0.18 0.26 0.37 0.40 0.33 0.18 0.10 0.32 0.41 0.16 0.01 0.00 0.01 0.04 0.05 0.10 0.20 0.20 0.19 0.14 0.06 0.01 0.00 0.00 0.00
0.32 0.34 0.51 0.85 1.64 2.02 1.67 1.29 1.28 0.82 0.93 1.34 1.35 0.55 0.28 0.36 0.27 0.22 0.12 0.14 0.17 0.21 0.23 0.21 0.20 0.23 0.35 0.36 0.04 0.00 0.00 0.00 0.00 0.01 0.03 0.09 0.04 0.01 0.01 0.00 0.00 0.00 0.01 0.04
0.57 0.79 1.21 1.53 1.56 1.40 1.18 1.75 1.89 1.52 1.44 1.50 1.01 0.55 0.34 0.31 0.35 0.25 0.33 0.21 0.29 0.21 0.15 0.10 0.16 0.16 0.19 0.12 0.02 0.01 0.01 0.02 0.02 0.01 0.00 0.00 0.00 0.00 0.01 0.01 0.03 0.05 0.04 0.00
1.29 1.54 1.76 1.87 1.64 1.42 1.20 1.80 2.10 2.03 1.74 1.33 0.71 0.43 0.59 0.29 0.25 0.29 0.48 0.62 0.35 0.27 0.09 0.11 0.12 0.05 0.01 0.00 0.00 0.01 0.01 0.01 0.01 0.01 0.02 0.04 0.05 0.07 0.07 0.06 0.03 0.00 0.00 0.00
2.35 2.02 1.83 1.54 1.71 1.40 1.55 1.70 1.49 1.05 0.65 0.41 0.20 0.15 0.45 0.57 0.39 0.48 0.64 0.74 0.45 0.22 0.05 0.14 0.11 0.02 0.01 0.01 0.01 0.01 0.01 0.01 0.01 0.01 0.02 0.06 0.11 0.06 0.01 0.00 0.00 0.01 0.01 0.01
1.97 1.45 1.33 1.60 1.55 1.47 1.36 1.34 0.99 0.38 0.12 0.05 0.05 0.04 0.17 0.80 0.66 0.59 0.69 0.46 0.40 0.18 0.03 0.11 0.08 0.02 0.01 0.03 0.02 0.01 0.01 0.01 0.04 0.08 0.08 0.05 0.01 0.02 0.02 0.02 0.03 0.05 0.07 0.08
1.86 1.72 1.97 1.88 2.00 1.62 1.01 0.52 0.34 0.16 0.05 0.05 0.03 0.06 0.11 0.46 0.70 0.83 0.78 0.66 0.47 0.20 0.22 0.11 0.04 0.03 0.02 0.03 0.03 0.03 0.02 0.03 0.02 0.02 0.03 0.03 0.04 0.04 0.05 0.06 0.09 0.09 0.07 0.04
1.85 2.17 2.16 1.83 1.49 0.88 0.47 0.15 0.09 0.06 0.06 0.06 0.04 0.09 0.14 0.27 0.45 0.71 0.87 0.81 0.36 0.35 0.18 0.08 0.12 0.11 0.09 0.05 0.03 0.01 0.02 0.03 0.04 0.06 0.06 0.06 0.07 0.10 0.12 0.11 0.10 0.07 0.04 0.02
1.12 0.97 1.09 1.00 0.60 0.35 0.27 0.17 0.12 0.11 0.11 0.12 0.16 0.28 0.27 0.29 0.55 0.55 0.46 0.44 0.32 0.22 0.25 0.35 0.32 0.11 0.02 0.01 0.00 0.01 0.04 0.06 0.08 0.08 0.07 0.08 0.08 0.07 0.08 0.09 0.07 0.04 0.01 0.01
0.54 0.56 0.63 0.48 0.37 0.44 0.35 0.28 0.30 0.29 0.32 0.31 0.35 0.39 0.39 0.47 0.33 0.26 0.27 0.28 0.27 0.34 0.19 0.16 0.11 0.11 0.04 0.03 0.03 0.05 0.08 0.11 0.13 0.11 0.10 0.10 0.11 0.11 0.08 0.05 0.02 0.02 0.01 0.01
0.47 0.48 0.39 0.28 0.28 0.43 0.36 0.32 0.34 0.30 0.27 0.26 0.22 0.20 0.22 0.24 0.23 0.20 0.19 0.25 0.17 0.08 0.07 0.11 0.08 0.06 0.04 0.05 0.07 0.09 0.09 0.11 0.13 0.12 0.10 0.07 0.06 0.04 0.05 0.04 0.02 0.01 0.01 0.02